Location: Niedergestelen
(46.3129°N, 7.7822°E)
Time: 14:48:16
(UTC+00:00)

Cosmos 1656 Rocket - Pass Details

Date: 01 December 2020
Orbit: 796 x 846 km, 71.1° (Epoch: 27 January)

Event Time Altitude Azimuth Distance (km) Brightness Sun altitude
Rises 17:02:40 0° 337° (NNW) 3,407 6.9 -13.1°
Reaches altitude 10° 17:05:17 10° 345° (NNW) 2,463 6.1 -13.5°
Maximum altitude 17:10:37 41° 55° (NE) 1,187 4.0 -14.4°
Drops below altitude 10° 17:15:51 10° 126° (SE) 2,420 5.7 -15.3°
Enters shadow 17:17:22 - 130° (SE) 2,962 6.2 -15.5°
